Wind_Speed
17 18 18 18 18 18 18 18 19 20 19 19 18 17 15 13 13 17 21 23 23 22 21 21 22 22 22 23 24 25 26 27 27 26 26 27 26 26 26 26 26 26
16 18 19 19 20 20 20 19 18 17 16 16 15 14 13 12 12 14 17 19 21 21 21 21 21 22 22 22 23 24 25 26 27 27 27 28 27 27 27 26 25 26
16 17 18 19 20 21 21 21 20 19 17 16 15 14 14 13 12 13 14 16 17 18 19 20 21 21 21 22 22 23 24 25 25 25 26 27 27 27 27 26 26 26
14 15 17 18 19 20 20 20 20 20 20 19 18 17 17 16 15 15 15 16 16 17 18 19 20 21 21 22 22 23 24 24 24 23 24 26 26 26 26 25 26 27
11 13 14 16 17 18 19 19 19 20 20 20 20 20 20 19 19 18 18 18 18 18 18 19 20 20 21 21 22 23 24 24 24 23 24 26 26 26 26 25 26 27
8 10 12 13 15 16 17 17 18 19 19 19 20 20 20 20 21 20 20 20 19 19 19 19 19 20 20 21 22 23 24 24 24 23 25 27 26 26 26 26 28 28
4 6 7 9 11 13 14 14 15 16 17 17 18 19 19 19 20 20 20 21 21 21 21 20 21 20 20 21 22 23 24 24 24 24 26 27 27 27 28 28 28 29
2 1 2 4 6 7 8 9 10 11 12 13 15 16 17 18 18 19 19 20 20 20 21 21 21 21 21 22 24 24 25 25 25 25 26 27 27 28 28 28 29 29
3 3 2 1 2 3 3 3 4 5 6 8 10 12 13 15 16 17 18 19 19 20 20 20 21 22 22 24 25 25 26 26 26 26 27 27 28 28 27 27 28 29
4 3 2 1 1 1 0 1 2 3 4 5 7 8 10 11 13 15 17 18 19 20 20 21 21 22 23 24 25 26 27 27 27 28 28 28 29 28 27 27 28 30
4 3 2 1 1 1 1 1 2 2 3 5 6 7 8 9 11 12 14 16 17 19 20 20 21 22 22 23 24 25 26 27 27 28 29 30 30 30 29 29 29 30
4 4 4 3 3 3 3 3 4 4 5 5 6 7 8 9 10 11 13 14 15 16 17 18 19 20 21 21 22 23 25 26 26 27 28 29 30 30 30 31 31 31
7 7 7 7 7 7 7 7 7 7 7 8 8 9 9 10 11 12 13 13 15 16 17 18 18 19 20 20 21 22 23 24 25 26 27 28 29 30 30 31 31 32
11 11 11 11 10 10 10 10 10 10 10 11 11 11 12 12 13 13 13 14 15 15 16 17 18 19 20 21 21 22 23 24 24 25 26 27 28 29 29 30 31 31
15 15 15 14 14 13 13 13 13 13 13 13 13 13 14 14 15 15 16 16 16 16 17 18 18 19 20 21 22 23 24 25 25 26 27 28 28 29 29 29 30 30
18 18 18 18 17 17 17 17 17 16 16 16 16 16 16 16 17 17 18 19 19 19 19 20 20 21 21 22 22 23 24 25 26 27 28 29 30 30 30 30 30 31
19 20 20 20 20 21 20 20 20 20 20 20 19 19 19 19 19 19 20 21 22 22 22 22 22 23 23 24 24 24 25 26 27 28 28 29 30 30 31 31 31 32
21 21 22 22 23 23 23 23 23 23 23 23 22 22 22 22 22 22 22 22 23 23 24 24 24 24 25 25 25 26 27 28 29 30 31 31 31 31 31 32 32 32
23 24 24 24 24 25 25 26 26 26 26 26 26 25 25 25 24 24 23 24 24 24 24 25 25 25 25 26 27 28 28 29 30 32 33 34 33 33 33 33 33 33
26 26 26 26 26 27 27 27 27 28 27 27 28 27 27 27 26 26 26 26 26 26 26 26 25 24 25 26 27 28 29 30 31 33 35 35 35 34 34 34 34 35
28 29 29 29 29 30 29 29 29 29 29 29 29 29 29 28 28 28 28 27 27 28 28 28 27 25 25 26 27 27 28 29 31 33 35 36 36 36 36 36 36 36
31 31 32 32 33 33 33 32 31 31 30 30 30 30 30 29 29 29 29 28 28 28 28 29 27 26 26 26 26 25 26 27 29 31 33 35 36 36 36 37 37 37
32 33 34 35 35 36 36 35 34 33 32 31 31 31 30 30 30 29 29 29 29 28 28 28 27 25 25 25 24 23 23 24 26 27 30 33 34 35 36 37 37 37
33 34 36 37 38 38 37 36 35 34 33 32 32 32 31 30 30 30 29 29 28 28 28 28 28 26 26 26 24 22 23 24 26 27 29 30 31 33 35 35 36 36
33 35 37 38 39 39 38 37 35 34 33 32 32 32 32 31 30 30 30 28 27 27 27 27 28 28 27 27 26 24 24 25 26 28 29 29 29 30 31 32 33 35
34 36 37 38 39 38 37 36 35 34 33 32 31 31 31 31 30 30 30 28 27 26 26 26 27 27 26 26 26 26 25 24 25 27 29 29 29 28 29 31 31 31
Wind_Direction
262 265 268 272 276 278 280 281 281 280 276 272 274 277 275 267 257 249 244 241 243 247 252 256 258 258 258 260 263 265 265 265 264 263 262 260 258 257 255 255 256 256
262 263 264 266 267 268 270 273 276 279 280 279 278 280 280 273 261 250 248 248 250 252 254 255 256 257 257 259 262 264 264 264 264 265 266 265 265 263 261 260 260 260
260 262 264 265 265 264 265 266 266 267 269 271 274 276 276 276 272 264 257 254 253 253 253 254 255 256 257 259 261 262 261 260 260 261 262 262 263 263 262 263 262 262
260 261 262 263 264 264 264 264 263 262 261 260 262 266 268 268 267 266 264 262 260 259 258 258 258 259 259 259 259 259 259 258 258 258 257 257 258 259 260 260 260 260
260 261 262 263 264 264 265 265 263 263 261 260 259 260 263 263 262 261 261 260 260 260 259 258 258 258 258 258 257 257 258 258 257 257 256 256 256 257 258 259 259 259
254 255 256 258 259 260 262 263 263 264 264 264 263 262 262 261 261 261 260 260 259 258 257 255 255 255 255 256 256 257 258 259 259 259 258 257 257 258 258 258 259 259
245 248 248 251 254 255 256 256 257 259 260 262 264 265 265 264 263 263 261 261 260 259 258 257 256 255 255 256 256 257 258 259 260 260 260 260 260 260 259 259 260 260
108 179 218 236 244 247 249 250 251 252 253 255 258 260 262 263 264 264 263 263 262 261 259 258 257 256 255 255 255 256 257 257 258 259 259 260 261 261 261 261 261 261
98 106 121 164 206 224 233 238 243 245 246 249 251 254 256 258 259 260 260 260 260 260 260 259 259 257 255 254 254 254 254 254 255 255 257 258 259 260 260 261 261 261
96 101 107 123 137 149 178 232 249 249 250 249 248 250 252 254 255 256 257 257 258 259 260 260 260 259 258 257 256 256 255 254 254 253 254 255 256 257 257 257 258 259
71 76 72 63 47 31 1 329 307 288 276 267 261 259 258 258 257 256 257 257 258 258 259 259 259 258 258 258 258 259 259 258 257 256 255 255 255 256 256 256 256 257
26 25 19 14 7 355 342 331 319 305 296 286 278 274 271 270 268 266 264 263 262 262 262 261 261 260 259 258 258 259 259 260 260 259 259 259 259 258 257 257 257 257
1 359 356 352 345 338 332 325 318 311 303 296 291 286 281 278 276 273 272 271 269 268 267 266 265 264 263 262 261 261 261 261 261 261 261 261 261 261 260 260 259 259
352 349 346 343 337 332 326 319 314 310 305 300 296 292 288 284 281 279 277 276 275 273 272 271 270 269 268 267 266 265 264 264 264 263 263 262 262 262 262 262 261 261
346 343 340 337 332 328 323 318 314 310 307 304 301 297 294 291 288 285 282 279 278 276 276 275 274 274 274 273 272 270 268 268 267 266 265 264 264 263 263 262 262 262
340 337 333 330 328 325 322 319 317 313 309 307 304 301 299 296 293 291 288 285 282 279 278 277 276 276 276 275 275 275 274 273 271 270 268 267 266 265 263 263 262 262
336 333 330 327 324 322 320 318 316 314 311 309 307 304 301 298 296 293 291 289 287 284 282 280 278 277 276 276 275 276 276 275 274 273 272 270 270 269 267 266 264 264
335 333 331 328 325 322 320 318 316 314 311 309 307 305 302 300 299 296 294 292 289 287 285 283 281 279 278 277 276 275 275 274 274 273 272 271 271 271 272 271 270 268
335 333 331 329 327 324 321 319 316 313 312 310 307 306 304 303 301 299 298 295 293 291 288 285 284 283 282 280 278 277 275 275 275 274 273 272 272 272 273 273 273 272
334 333 331 328 327 324 321 319 317 314 312 310 307 305 303 302 301 299 298 297 296 295 292 289 288 288 286 284 281 279 277 275 275 275 275 275 275 274 274 274 274 274
333 332 331 329 327 324 321 319 317 314 312 310 307 305 303 302 300 299 297 296 295 295 293 292 293 292 289 286 283 281 278 276 275 274 275 275 275 274 274 273 273 274
334 333 332 330 329 326 323 320 317 314 312 309 307 305 303 302 301 299 298 297 296 295 295 294 294 293 289 286 285 284 282 280 278 277 276 275 274 274 273 272 272 273
333 332 331 331 329 327 325 322 318 314 312 309 306 303 301 299 298 297 297 297 297 298 298 296 295 293 289 286 285 285 284 281 279 278 277 277 278 277 276 275 275 275
330 330 329 329 328 326 324 321 317 314 312 311 308 305 303 301 299 296 295 295 296 296 296 294 292 290 288 286 285 284 282 280 278 278 278 280 282 282 281 280 279 277
327 326 326 325 324 323 320 317 314 312 310 309 308 306 304 303 303 301 298 297 296 294 292 290 289 289 288 288 287 284 282 282 283 282 281 281 282 285 286 284 281 281
323 323 322 321 319 317 315 312 310 309 308 307 305 304 303 302 303 303 301 300 299 296 293 291 290 290 289 287 285 284 284 286 286 283 282 282 280 281 283 285 287 289
Height
1454 1455 1456 1457 1458 1459 1460 1461 1462 1463 1464 1466 1467 1467 1468 1469 1469 1470 1472 1474 1476 1477 1479 1481 1482 1484 1485 1486 1487 1487 1488 1489 1490 1491 1492 1493 1494 1495 1495 1496 1497 1498
1453 1454 1455 1455 1456 1457 1458 1459 1461 1462 1463 1464 1465 1466 1467 1467 1467 1468 1469 1470 1472 1474 1475 1477 1478 1480 1481 1482 1483 1484 1484 1485 1486 1488 1488 1489 1490 1491 1492 1493 1494 1495
1451 1452 1453 1454 1455 1456 1457 1458 1459 1460 1461 1462 1463 1464 1465 1465 1466 1466 1467 1468 1469 1471 1472 1474 1475 1476 1478 1479 1479 1480 1481 1482 1483 1484 1485 1485 1487 1488 1489 1490 1491 1491
1450 1451 1451 1452 1453 1454 1455 1456 1457 1458 1459 1460 1461 1461 1462 1463 1464 1464 1465 1466 1467 1468 1470 1471 1472 1473 1474 1475 1476 1476 1477 1478 1479 1481 1481 1481 1483 1484 1485 1487 1487 1488
1448 1449 1450 1450 1451 1452 1453 1454 1455 1456 1457 1457 1458 1459 1459 1460 1461 1461 1462 1463 1464 1466 1467 1468 1469 1470 1471 1471 1472 1473 1473 1474 1476 1477 1478 1478 1479 1480 1482 1483 1483 1484
1447 1447 1448 1449 1449 1450 1450 1451 1452 1453 1454 1455 1456 1456 1457 1457 1458 1459 1459 1460 1461 1462 1463 1464 1465 1466 1467 1468 1468 1469 1470 1471 1472 1474 1474 1474 1476 1477 1478 1479 1479 1480
1446 1447 1447 1447 1448 1448 1448 1449 1450 1450 1451 1452 1453 1454 1454 1455 1455 1456 1457 1457 1458 1459 1460 1461 1462 1462 1463 1464 1464 1465 1466 1467 1468 1470 1470 1470 1472 1473 1474 1475 1475 1476
1447 1447 1447 1447 1447 1447 1447 1448 1448 1448 1449 1449 1450 1450 1451 1452 1453 1453 1454 1454 1455 1456 1457 1457 1458 1459 1460 1461 1461 1461 1462 1463 1464 1465 1466 1466 1467 1468 1469 1470 1471 1471
1447 1447 1447 1447 1447 1447 1447 1447 1447 1447 1447 1448 1448 1448 1448 1449 1450 1450 1451 1452 1452 1453 1453 1454 1455 1456 1457 1457 1457 1458 1459 1460 1460 1461 1461 1462 1462 1463 1465 1466 1466 1466
1448 1448 1447 1447 1447 1447 1447 1447 1447 1447 1447 1447 1447 1447 1447 1447 1447 1448 1448 1449 1449 1450 1450 1451 1452 1452 1453 1454 1454 1454 1455 1456 1456 1457 1457 1458 1458 1459 1460 1461 1461 1461
1448 1448 1447 1447 1447 1447 1447 1447 1447 1447 1447 1447 1446 1446 1446 1446 1446 1446 1446 1447 1447 1447 1448 1448 1449 1449 1450 1450 1451 1451 1451 1452 1453 1453 1453 1454 1454 1455 1456 1456 1456 1456
1449 1448 1448 1447 1447 1447 1446 1446 1446 1446 1446 1446 1446 1445 1445 1445 1445 1445 1445 1445 1445 1445 1445 1445 1446 1446 1447 1447 1447 1447 1448 1448 1449 1449 1449 1450 1450 1451 1451 1452 1452 1452
1449 1448 1448 1447 1447 1446 1446 1446 1446 1446 1445 1445 1445 1444 1444 1444 1444 1444 1443 1443 1443 1443 1443 1443 1443 1443 1443 1444 1444 1444 1444 1445 1445 1445 1445 1446 1446 1447 1447 1448 1448 1448
1448 1448 1447 1447 1446 1446 1446 1445 1445 1445 1444 1444 1444 1443 1443 1442 1442 1442 1442 1441 1441 1441 1441 1440 1440 1440 1440 1440 1441 1441 1441 1441 1441 1441 1441 1442 1442 1442 1443 1443 1444 1444
1448 1447 1447 1446 1445 1445 1445 1444 1444 1444 1443 1443 1442 1441 1441 1441 1440 1440 1440 1440 1439 1439 1438 1438 1438 1437 1437 1437 1437 1437 1437 1437 1437 1437 1437 1438 1438 1438 1438 1439 1439 1440
1447 1447 1446 1445 1444 1443 1443 1442 1442 1441 1441 1440 1440 1439 1439 1438 1438 1438 1437 1437 1436 1436 1436 1436 1435 1435 1434 1434 1434 1433 1433 1433 1433 1433 1433 1433 1433 1433 1434 1434 1435 1435
1447 1446 1445 1444 1443 1442 1441 1440 1440 1439 1438 1438 1437 1437 1436 1436 1435 1435 1434 1434 1433 1433 1433 1433 1432 1432 1431 1431 1431 1430 1430 1429 1429 1429 1429 1429 1428 1428 1429 1429 1430 1430
1445 1444 1443 1442 1441 1440 1439 1438 1437 1436 1435 1435 1434 1434 1433 1432 1432 1431 1431 1431 1430 1430 1429 1429 1429 1428 1428 1428 1427 1427 1426 1425 1425 1424 1424 1424 1424 1424 1424 1424 1424 1425
1443 1442 1441 1440 1439 1438 1437 1436 1435 1434 1433 1432 1431 1430 1430 1429 1429 1428 1428 1427 1426 1426 1425 1425 1425 1425 1424 1424 1423 1423 1422 1421 1421 1420 1419 1419 1420 1420 1420 1419 1419 1419
1441 1440 1439 1438 1437 1436 1435 1434 1433 1431 1430 1429 1428 1427 1426 1426 1425 1424 1424 1423 1422 1422 1421 1421 1421 1421 1420 1420 1419 1418 1418 1417 1416 1415 1414 1414 1415 1415 1415 1414 1414 1414
1439 1438 1437 1436 1435 1434 1432 1431 1430 1429 1428 1426 1425 1424 1423 1422 1422 1421 1420 1420 1419 1418 1417 1416 1417 1417 1416 1415 1414 1414 1413 1413 1412 1411 1410 1410 1410 1410 1410 1409 1409 1409
1437 1436 1435 1433 1432 1431 1429 1428 1427 1426 1425 1423 1422 1421 1420 1419 1418 1417 1417 1416 1415 1415 1413 1413 1413 1413 1412 1411 1410 1410 1409 1408 1407 1406 1405 1404 1404 1405 1404 1404 1404 1404
1436 1434 1433 1431 1430 1428 1426 1425 1423 1422 1421 1420 1419 1418 1417 1416 1415 1414 1413 1412 1411 1411 1410 1409 1408 1408 1407 1407 1407 1406 1406 1404 1403 1402 1400 1399 1399 1399 1399 1398 1398 1398
1434 1432 1430 1429 1427 1426 1424 1422 1421 1419 1418 1417 1415 1414 1413 1412 1411 1411 1410 1409 1408 1408 1406 1405 1404 1403 1403 1403 1403 1403 1402 1400 1399 1397 1396 1395 1395 1394 1393 1393 1393 1393
1432 1430 1428 1426 1425 1423 1421 1419 1418 1416 1415 1414 1412 1410 1409 1408 1407 1406 1406 1406 1405 1404 1403 1402 1400 1400 1400 1399 1399 1399 1398 1397 1395 1393 1392 1392 1391 1390 1389 1389 1388 1388
1429 1427 1425 1424 1422 1420 1418 1416 1415 1413 1412 1411 1409 1408 1406 1405 1404 1403 1401 1401 1401 1400 1399 1398 1397 1396 1396 1396 1395 1395 1394 1394 1392 1390 1389 1388 1387 1387 1386 1385 1384 1384